Dades meteomassalio
Diari Summary for Agost 3, 2017 Units:  Metric    English   Both
« Previous Day
Next Day »
Diari Semanal Mensual Anual Personalitzat
  Maxima: Minima: Mijana:
Temperatura: 38.9 °C 18.8 °C 29.3 °C
Rosada: 17.1 °C 11.4 °C 15 °C
Humitat: 73 % 20 % 46 %
Velocitat del vent: 18.5 km/h 0.0 km/h 4 km/h
Racha vent: 18.5 km/h - -
Vent:- - ESE
Pressio: 1015.8 hPa 1011.7 hPa -
Pluja: 0.0 mm    
Historical Graphs
 
 
Tabular Data for Agost 3, 2017
Time Temperature Dew Point Pressure Wind Wind Speed Wind Gust Humidity Rainfall Rate (Hourly) solar Conditions
00:04 26.7 °C 16.1 °C 1015.8 hPa Calm     52 % 0.0 mm 0.0 W/m2 CLR
00:09 26.5 °C 15.8 °C 1015.8 hPa Calm     52 % 0.0 mm 0.0 W/m2 CLR
00:14 26.6 °C 15.9 °C 1015.8 hPa Calm     52 % 0.0 mm 0.0 W/m2 CLR
00:19 26.7 °C 16.0 °C 1015.8 hPa Calm     52 % 0.0 mm 0.0 W/m2 CLR
00:24 26.6 °C 15.9 °C 1015.8 hPa Calm     52 % 0.0 mm 0.0 W/m2 CLR
00:29 26.4 °C 16.1 °C 1015.8 hPa Calm     53 % 0.0 mm 0.0 W/m2 CLR
00:34 26.1 °C 16.1 °C 1015.8 hPa Calm     54 % 0.0 mm 0.0 W/m2 CLR
00:39 25.8 °C 16.1 °C 1015.8 hPa Calm     55 % 0.0 mm 0.0 W/m2 CLR
00:44 25.5 °C 15.8 °C 1015.8 hPa Calm     55 % 0.0 mm 0.0 W/m2 CLR
00:49 25.4 °C 16.0 °C 1015.8 hPa Calm     56 % 0.0 mm 0.0 W/m2 CLR
00:54 25.3 °C 15.9 °C 1015.8 hPa Calm     56 % 0.0 mm 0.0 W/m2 CLR
00:59 25.1 °C 15.7 °C 1015.8 hPa Calm     56 % 0.0 mm 0.0 W/m2 CLR
01:04 25.2 °C 15.8 °C 1015.8 hPa Calm     56 % 0.0 mm 0.0 W/m2 CLR
01:09 25.2 °C 15.8 °C 1015.8 hPa Calm     56 % 0.0 mm 0.0 W/m2 CLR
01:14 25.0 °C 15.9 °C 1015.8 hPa Calm     57 % 0.0 mm 0.0 W/m2 CLR
01:19 24.8 °C 15.7 °C 1015.5 hPa Calm     57 % 0.0 mm 0.0 W/m2 CLR
01:24 24.6 °C 15.8 °C 1015.8 hPa Calm     58 % 0.0 mm 0.0 W/m2 CLR
01:29 24.4 °C 15.8 °C 1015.5 hPa Calm     59 % 0.0 mm 0.0 W/m2 CLR
01:34 24.1 °C 15.8 °C 1015.5 hPa Calm     60 % 0.0 mm 0.0 W/m2 CLR
01:39 23.7 °C 15.5 °C 1015.5 hPa Calm     60 % 0.0 mm 0.0 W/m2 CLR
01:44 23.5 °C 15.6 °C 1015.5 hPa Calm     61 % 0.0 mm 0.0 W/m2 CLR
01:49 23.4 °C 15.4 °C 1015.5 hPa Calm     61 % 0.0 mm 0.0 W/m2 CLR
01:54 23.3 °C 15.6 °C 1015.5 hPa Calm     62 % 0.0 mm 0.0 W/m2 CLR
01:59 23.1 °C 15.4 °C 1015.5 hPa Calm     62 % 0.0 mm 0.0 W/m2 CLR
02:04 22.9 °C 15.5 °C 1015.5 hPa Calm     63 % 0.0 mm 0.0 W/m2 CLR
02:09 22.8 °C 15.7 °C 1015.5 hPa Calm     64 % 0.0 mm 0.0 W/m2 CLR
02:14 22.8 °C 15.4 °C 1015.5 hPa Calm     63 % 0.0 mm 0.0 W/m2 CLR
02:19 22.6 °C 15.4 °C 1015.5 hPa Calm     64 % 0.0 mm 0.0 W/m2 CLR
02:24 22.5 °C 15.3 °C 1015.5 hPa Calm     64 % 0.0 mm 0.0 W/m2 CLR
02:29 22.3 °C 15.2 °C 1015.5 hPa Calm     64 % 0.0 mm 0.0 W/m2 CLR
02:35 22.2 °C 15.3 °C 1015.5 hPa Calm     65 % 0.0 mm 0.0 W/m2 CLR
02:40 22.1 °C 15.2 °C 1015.5 hPa Calm     65 % 0.0 mm 0.0 W/m2 CLR
02:45 22.0 °C 15.1 °C 1015.5 hPa Calm     65 % 0.0 mm 0.0 W/m2 CLR
02:50 21.9 °C 15.0 °C 1015.5 hPa Calm     65 % 0.0 mm 0.0 W/m2 CLR
02:55 21.7 °C 14.8 °C 1015.5 hPa Calm     65 % 0.0 mm 0.0 W/m2 CLR
03:00 21.6 °C 14.9 °C 1015.5 hPa Calm     66 % 0.0 mm 0.0 W/m2 CLR
03:05 21.4 °C 15.1 °C 1015.1 hPa Calm     67 % 0.0 mm 0.0 W/m2 CLR
03:10 21.3 °C 14.9 °C 1015.1 hPa Calm     67 % 0.0 mm 0.0 W/m2 CLR
03:15 21.2 °C 14.8 °C 1015.1 hPa Calm     67 % 0.0 mm 0.0 W/m2 CLR
03:20 21.1 °C 14.7 °C 1015.1 hPa Calm     67 % 0.0 mm 0.0 W/m2 CLR
03:25 21.1 °C 14.7 °C 1015.1 hPa Calm     67 % 0.0 mm 0.0 W/m2 CLR
03:30 20.9 °C 14.6 °C 1015.1 hPa Calm     67 % 0.0 mm 0.0 W/m2 CLR
03:35 20.8 °C 14.7 °C 1015.1 hPa Calm     68 % 0.0 mm 0.0 W/m2 CLR
03:40 20.7 °C 14.4 °C 1015.5 hPa Calm     67 % 0.0 mm 0.0 W/m2 CLR
03:42 20.6 °C 14.3 °C 1015.5 hPa Calm     67 % 0.0 mm 0.0 W/m2 CLR
03:47 20.6 °C 14.2 °C 1015.5 hPa Calm     67 % 0.0 mm 0.0 W/m2 CLR
03:52 20.5 °C 14.2 °C 1015.5 hPa Calm     67 % 0.0 mm 0.0 W/m2 CLR
03:57 20.6 °C 14.2 °C 1015.5 hPa Calm     67 % 0.0 mm 0.0 W/m2 CLR
04:02 20.6 °C 14.2 °C 1015.5 hPa Calm     67 % 0.0 mm 0.0 W/m2 CLR
04:07 20.4 °C 14.3 °C 1015.5 hPa Calm     68 % 0.0 mm 0.0 W/m2 CLR
04:12 20.3 °C 13.9 °C 1015.5 hPa Calm     67 % 0.0 mm 0.0 W/m2 CLR
04:17 20.2 °C 14.1 °C 1015.5 hPa Calm     68 % 0.0 mm 0.0 W/m2 CLR
04:22 20.1 °C 13.8 °C 1015.5 hPa Calm     67 % 0.0 mm 0.0 W/m2 CLR
04:27 20.1 °C 13.8 °C 1015.5 hPa Calm     67 % 0.0 mm 0.0 W/m2 CLR
04:32 20.1 °C 13.8 °C 1015.5 hPa Calm     67 % 0.0 mm 0.0 W/m2 CLR
04:37 20.1 °C 13.9 °C 1015.5 hPa Calm     68 % 0.0 mm 0.0 W/m2 CLR
04:42 20.0 °C 13.9 °C 1015.5 hPa Calm     68 % 0.0 mm 0.0 W/m2 CLR
04:47 19.9 °C 13.8 °C 1015.5 hPa Calm     68 % 0.0 mm 0.0 W/m2 CLR
04:52 19.9 °C 13.8 °C 1015.5 hPa Calm     68 % 0.0 mm 0.0 W/m2 CLR
04:57 19.8 °C 14.0 °C 1015.5 hPa Calm     69 % 0.0 mm 0.0 W/m2 CLR
05:02 19.7 °C 13.9 °C 1015.5 hPa Calm     69 % 0.0 mm 0.0 W/m2 CLR
05:07 19.6 °C 13.7 °C 1015.5 hPa Calm     69 % 0.0 mm 0.0 W/m2 CLR
05:12 19.6 °C 13.7 °C 1015.5 hPa Calm     69 % 0.0 mm 0.0 W/m2 CLR
05:17 19.7 °C 13.6 °C 1015.5 hPa SSE 3.7 km/h 3.7 km/h 68 % 0.0 mm 0.0 W/m2 CLR
05:22 19.8 °C 13.8 °C 1015.5 hPa Calm     68 % 0.0 mm 0.0 W/m2 CLR
05:24 19.9 °C 13.6 °C 1015.5 hPa Calm     67 % 0.0 mm 0.0 W/m2 CLR
05:26 19.9 °C 13.6 °C 1015.5 hPa Calm     67 % 0.0 mm 0.0 W/m2 CLR
05:28 19.8 °C 13.8 °C 1015.5 hPa Calm     68 % 0.0 mm 0.0 W/m2 CLR
05:33 19.7 °C 13.8 °C 1015.5 hPa Calm     69 % 0.0 mm 0.0 W/m2 CLR
05:38 19.6 °C 13.7 °C 1015.5 hPa Calm     69 % 0.0 mm 0.0 W/m2 CLR
05:43 19.5 °C 13.7 °C 1015.5 hPa SSW 5.6 km/h 5.6 km/h 69 % 0.0 mm 0.0 W/m2 CLR
05:48 19.4 °C 13.6 °C 1015.5 hPa SW 3.7 km/h 3.7 km/h 69 % 0.0 mm 0.0 W/m2 CLR
05:53 19.4 °C 13.4 °C 1015.5 hPa Calm     68 % 0.0 mm 0.0 W/m2 CLR
05:58 19.4 °C 13.4 °C 1015.5 hPa Calm     68 % 0.0 mm 0.0 W/m2 CLR
06:03 19.4 °C 13.4 °C 1015.5 hPa Calm     68 % 0.0 mm 0.0 W/m2 CLR
06:08 19.6 °C 13.7 °C 1015.5 hPa Calm     69 % 0.0 mm 0.0 W/m2 CLR
06:13 19.7 °C 13.6 °C 1015.5 hPa Calm     68 % 0.0 mm 0.0 W/m2 CLR
06:18 19.6 °C 13.6 °C 1015.5 hPa Calm     68 % 0.0 mm 0.0 W/m2 CLR
06:23 19.4 °C 13.6 °C 1015.5 hPa Calm     69 % 0.0 mm 0.0 W/m2 CLR
06:28 19.4 °C 13.3 °C 1015.5 hPa Calm     68 % 0.0 mm 0.0 W/m2 CLR
06:33 19.3 °C 13.5 °C 1015.8 hPa Calm     69 % 0.0 mm 0.0 W/m2 CLR
06:38 19.3 °C 13.4 °C 1015.8 hPa Calm     69 % 0.0 mm 0.0 W/m2 CLR
06:43 19.2 °C 13.3 °C 1015.8 hPa Calm     69 % 0.0 mm 0.0 W/m2 CLR
06:48 18.9 °C 13.3 °C 1015.8 hPa Calm     70 % 0.0 mm 0.0 W/m2 OVC
06:53 18.9 °C 13.5 °C 1015.8 hPa Calm     71 % 0.0 mm 0.0 W/m2 OVC
06:58 18.9 °C 13.5 °C 1015.8 hPa Calm     71 % 0.0 mm 0.0 W/m2 OVC
07:03 18.9 °C 13.6 °C 1015.8 hPa Calm     71 % 0.0 mm 7.0 W/m2 OVC
07:08 18.9 °C 13.6 °C 1015.8 hPa Calm     71 % 0.0 mm 11.0 W/m2 BKN
07:13 19.0 °C 13.6 °C 1015.8 hPa Calm     71 % 0.0 mm 14.0 W/m2 BKN
07:18 19.0 °C 13.8 °C 1015.8 hPa Calm     72 % 0.0 mm 18.0 W/m2 BKN
07:23 18.9 °C 13.9 °C 1015.8 hPa Calm     73 % 0.0 mm 23.0 W/m2 BKN
07:28 18.8 °C 13.9 °C 1015.8 hPa Calm     73 % 0.0 mm 26.0 W/m2 BKN
07:33 18.9 °C 13.8 °C 1015.8 hPa Calm     72 % 0.0 mm 33.0 W/m2 BKN
07:38 19.1 °C 13.7 °C 1015.8 hPa Calm     71 % 0.0 mm 39.0 W/m2 BKN
07:43 19.3 °C 13.7 °C 1015.8 hPa Calm     70 % 0.0 mm 46.0 W/m2 SCT
07:48 19.4 °C 13.8 °C 1015.8 hPa Calm     70 % 0.0 mm 56.0 W/m2 SCT
07:53 19.7 °C 13.9 °C 1015.8 hPa Calm     69 % 0.0 mm 69.0 W/m2 SCT
07:58 19.9 °C 14.1 °C 1015.8 hPa SSE 1.9 km/h   69 % 0.0 mm 81.0 W/m2 FEW
08:03 20.1 °C 14.2 °C 1015.8 hPa Calm     69 % 0.0 mm 91.0 W/m2 FEW
08:08 20.4 °C 14.3 °C 1015.8 hPa Calm     68 % 0.0 mm 105.0 W/m2 CLR
08:13 20.8 °C 14.4 °C 1015.8 hPa Calm     67 % 0.0 mm 121.0 W/m2 CLR
08:18 21.1 °C 14.7 °C 1015.8 hPa Calm     67 % 0.0 mm 132.0 W/m2 CLR
08:23 21.4 °C 14.6 °C 1015.8 hPa Calm     65 % 0.0 mm 149.0 W/m2 CLR
08:28 21.9 °C 14.8 °C 1015.8 hPa Calm     64 % 0.0 mm 169.0 W/m2 CLR
08:33 22.4 °C 15.1 °C 1015.8 hPa Calm     63 % 0.0 mm 192.0 W/m2 CLR
08:38 22.9 °C 15.3 °C 1015.8 hPa Calm     62 % 0.0 mm 213.0 W/m2 CLR
08:43 23.3 °C 15.1 °C 1015.8 hPa Calm     60 % 0.0 mm 230.0 W/m2 CLR
08:48 23.7 °C 15.5 °C 1015.8 hPa Calm     60 % 0.0 mm 248.0 W/m2 CLR
08:53 24.0 °C 15.8 °C 1015.8 hPa Calm     60 % 0.0 mm 237.0 W/m2 CLR
08:58 24.0 °C 15.8 °C 1015.8 hPa Calm     60 % 0.0 mm 262.0 W/m2 CLR
09:03 23.9 °C 15.4 °C 1015.8 hPa Calm     59 % 0.0 mm 285.0 W/m2 CLR
09:08 24.2 °C 15.9 °C 1015.8 hPa ENE 6.4 km/h 6.4 km/h 60 % 0.0 mm 255.0 W/m2 CLR
09:13 24.5 °C 15.9 °C 1015.8 hPa ENE 5.6 km/h 5.6 km/h 59 % 0.0 mm 315.0 W/m2 CLR
09:18 24.8 °C 15.4 °C 1015.8 hPa East 5.6 km/h 5.6 km/h 56 % 0.0 mm 332.0 W/m2 CLR
09:23 25.3 °C 15.3 °C 1015.8 hPa ENE 3.7 km/h   54 % 0.0 mm 343.0 W/m2 CLR
09:28 25.9 °C 15.6 °C 1015.8 hPa Calm     53 % 0.0 mm 367.0 W/m2 CLR
09:33 26.4 °C 15.5 °C 1015.8 hPa Calm     51 % 0.0 mm 369.0 W/m2 CLR
09:38 27.1 °C 15.4 °C 1015.8 hPa Calm     49 % 0.0 mm 394.0 W/m2 CLR
09:43 27.4 °C 15.4 °C 1015.8 hPa Calm     48 % 0.0 mm 207.0 W/m2 CLR
09:48 27.6 °C 15.6 °C 1015.8 hPa Calm     48 % 0.0 mm 213.0 W/m2 CLR
09:53 27.7 °C 15.7 °C 1015.8 hPa Calm     48 % 0.0 mm 432.0 W/m2 CLR
09:58 28.0 °C 16.3 °C 1015.8 hPa Calm     49 % 0.0 mm 457.0 W/m2 CLR
10:03 28.5 °C 16.1 °C 1015.8 hPa Calm     47 % 0.0 mm 468.0 W/m2 CLR
10:08 28.9 °C 16.1 °C 1015.8 hPa Calm     46 % 0.0 mm 478.0 W/m2 CLR
10:13 29.2 °C 16.1 °C 1015.8 hPa Calm     45 % 0.0 mm 501.0 W/m2 CLR
10:18 29.4 °C 16.3 °C 1015.8 hPa Calm     45 % 0.0 mm 510.0 W/m2 CLR
10:23 29.7 °C 16.1 °C 1015.8 hPa Calm     44 % 0.0 mm 526.0 W/m2 CLR
10:28 30.0 °C 16.1 °C 1015.8 hPa Calm     43 % 0.0 mm 548.0 W/m2 CLR
10:34 30.3 °C 16.3 °C 1015.8 hPa Calm     43 % 0.0 mm 561.0 W/m2 CLR
10:39 30.4 °C 16.1 °C 1015.8 hPa ENE 1.9 km/h 1.9 km/h 42 % 0.0 mm 570.0 W/m2 CLR
10:44 30.6 °C 16.2 °C 1015.5 hPa Calm     42 % 0.0 mm 585.0 W/m2 CLR
10:49 31.1 °C 15.9 °C 1015.5 hPa Calm     40 % 0.0 mm 601.0 W/m2 CLR
10:54 31.6 °C 16.3 °C 1015.5 hPa ENE 3.2 km/h   40 % 0.0 mm 605.0 W/m2 CLR
10:59 31.9 °C 16.6 °C 1015.5 hPa ENE 5.6 km/h 5.6 km/h 40 % 0.0 mm 628.0 W/m2 CLR
11:04 32.1 °C 16.4 °C 1015.5 hPa ENE 7.4 km/h 7.4 km/h 39 % 0.0 mm 647.0 W/m2 CLR
11:09 32.1 °C 16.8 °C 1015.5 hPa ENE 11.1 km/h 11.1 km/h 40 % 0.0 mm 645.0 W/m2 CLR
11:14 32.3 °C 16.6 °C 1015.5 hPa NE 7.4 km/h 7.4 km/h 39 % 0.0 mm 671.0 W/m2 CLR
11:19 32.2 °C 16.1 °C 1015.5 hPa ENE 5.6 km/h   38 % 0.0 mm 689.0 W/m2 CLR
11:24 32.4 °C 16.7 °C 1015.5 hPa ENE 5.6 km/h 5.6 km/h 39 % 0.0 mm 679.0 W/m2 CLR
11:29 32.8 °C 16.7 °C 1015.5 hPa East 9.3 km/h 9.3 km/h 38 % 0.0 mm 675.0 W/m2 CLR
11:34 32.7 °C 16.6 °C 1015.5 hPa NE 3.7 km/h 3.7 km/h 38 % 0.0 mm 587.0 W/m2 CLR
11:39 32.9 °C 16.3 °C 1015.5 hPa NE 3.7 km/h 3.7 km/h 37 % 0.0 mm 680.0 W/m2 CLR
11:44 33.1 °C 15.6 °C 1015.5 hPa NNE 9.3 km/h 9.3 km/h 35 % 0.0 mm 714.0 W/m2 CLR
11:49 32.9 °C 15.4 °C 1015.5 hPa NNE 14.8 km/h 14.8 km/h 35 % 0.0 mm 710.0 W/m2 CLR
11:54 32.9 °C 15.4 °C 1015.1 hPa NNW 7.4 km/h 7.4 km/h 35 % 0.0 mm 733.0 W/m2 CLR
11:59 33.2 °C 15.7 °C 1015.1 hPa NNW 17.7 km/h 17.7 km/h 35 % 0.0 mm 724.0 W/m2 CLR
12:04 33.3 °C 16.2 °C 1015.5 hPa NNW 14.8 km/h 14.8 km/h 36 % 0.0 mm 768.0 W/m2 CLR
12:09 33.1 °C 16.1 °C 1015.5 hPa North 16.7 km/h 16.7 km/h 36 % 0.0 mm 765.0 W/m2 CLR
12:14 33.2 °C 16.1 °C 1015.5 hPa NNW 14.8 km/h 14.8 km/h 36 % 0.0 mm 775.0 W/m2 CLR
12:19 33.2 °C 16.1 °C 1015.5 hPa North 16.7 km/h 16.7 km/h 36 % 0.0 mm 786.0 W/m2 CLR
12:24 33.3 °C 16.2 °C 1015.5 hPa NNE 18.5 km/h 18.5 km/h 36 % 0.0 mm 788.0 W/m2 CLR
12:29 33.4 °C 16.3 °C 1015.1 hPa North 17.7 km/h 17.7 km/h 36 % 0.0 mm 798.0 W/m2 CLR
12:34 33.4 °C 16.3 °C 1015.5 hPa NW 14.8 km/h 14.8 km/h 36 % 0.0 mm 816.0 W/m2 CLR
12:39 33.4 °C 15.9 °C 1015.1 hPa NE 7.4 km/h 7.4 km/h 35 % 0.0 mm 826.0 W/m2 CLR
12:40 33.4 °C 15.8 °C 1015.1 hPa NE 11.3 km/h 11.3 km/h 35 % 0.0 mm 828.0 W/m2 CLR
12:45 33.8 °C 15.7 °C 1015.1 hPa NNE 14.8 km/h 14.8 km/h 34 % 0.0 mm 837.0 W/m2 CLR
12:50 33.9 °C 15.9 °C 1015.1 hPa North 14.5 km/h 14.5 km/h 34 % 0.0 mm 842.0 W/m2 CLR
12:55 33.8 °C 16.2 °C 1015.1 hPa NNE 14.8 km/h 14.8 km/h 35 % 0.0 mm 847.0 W/m2 CLR
13:00 34.1 °C 16.0 °C 1015.1 hPa NNW 7.4 km/h 7.4 km/h 34 % 0.0 mm 856.0 W/m2 CLR
13:05 34.4 °C 15.8 °C 1015.1 hPa NNE 16.7 km/h 16.7 km/h 33 % 0.0 mm 858.0 W/m2 CLR
13:10 34.3 °C 16.2 °C 1014.8 hPa NNW 11.1 km/h 11.1 km/h 34 % 0.0 mm 863.0 W/m2 CLR
13:15 34.4 °C 15.8 °C 1014.8 hPa ENE 13.0 km/h   33 % 0.0 mm 867.0 W/m2 CLR
13:20 34.7 °C 16.5 °C 1014.8 hPa North 14.8 km/h 14.8 km/h 34 % 0.0 mm 875.0 W/m2 CLR
13:25 34.6 °C 16.0 °C 1014.8 hPa NNE 13.0 km/h 13.0 km/h 33 % 0.0 mm 875.0 W/m2 CLR
13:30 34.7 °C 16.1 °C 1014.8 hPa NW 8.0 km/h 8.0 km/h 33 % 0.0 mm 877.0 W/m2 CLR
13:35 34.8 °C 16.1 °C 1014.8 hPa West 11.1 km/h 11.1 km/h 33 % 0.0 mm 881.0 W/m2 CLR
13:40 34.8 °C 16.2 °C 1014.8 hPa Calm     33 % 0.0 mm 882.0 W/m2 CLR
13:45 35.3 °C 16.6 °C 1014.8 hPa Calm     33 % 0.0 mm 879.0 W/m2 CLR
13:50 35.6 °C 15.9 °C 1014.4 hPa ESE 7.4 km/h 7.4 km/h 31 % 0.0 mm 882.0 W/m2 CLR
13:55 35.3 °C 16.1 °C 1014.4 hPa ESE 6.4 km/h 6.4 km/h 32 % 0.0 mm 881.0 W/m2 CLR
14:00 35.3 °C 15.6 °C 1014.4 hPa ENE 9.3 km/h 9.3 km/h 31 % 0.0 mm 882.0 W/m2 CLR
14:05 35.1 °C 15.9 °C 1014.4 hPa Calm     32 % 0.0 mm 882.0 W/m2 CLR
14:10 35.4 °C 16.2 °C 1014.4 hPa Calm     32 % 0.0 mm 884.0 W/m2 CLR
14:11 35.5 °C 16.3 °C 1014.4 hPa Calm     32 % 0.0 mm 884.0 W/m2 CLR
14:16 35.8 °C 16.1 °C 1014.1 hPa ENE 11.1 km/h 11.1 km/h 31 % 0.0 mm 884.0 W/m2 CLR
14:21 36.0 °C 16.2 °C 1014.1 hPa Calm     31 % 0.0 mm 879.0 W/m2 CLR
14:26 36.1 °C 16.3 °C 1014.1 hPa Calm     31 % 0.0 mm 881.0 W/m2 CLR
14:31 36.1 °C 16.3 °C 1014.1 hPa Calm     31 % 0.0 mm 881.0 W/m2 CLR
14:36 36.2 °C 15.8 °C 1014.1 hPa Calm     30 % 0.0 mm 881.0 W/m2 CLR
14:41 36.4 °C 16.1 °C 1013.8 hPa NE 11.1 km/h 11.1 km/h 30 % 0.0 mm 875.0 W/m2 CLR
14:46 36.6 °C 16.2 °C 1013.8 hPa Calm     30 % 0.0 mm 879.0 W/m2 CLR
14:51 36.9 °C 16.0 °C 1013.8 hPa Calm     29 % 0.0 mm 875.0 W/m2 CLR
14:56 37.0 °C 15.5 °C 1013.8 hPa ESE 5.6 km/h 5.6 km/h 28 % 0.0 mm 870.0 W/m2 CLR
15:01 36.8 °C 15.3 °C 1013.8 hPa Calm     28 % 0.0 mm 867.0 W/m2 CLR
15:06 37.1 °C 16.1 °C 1013.8 hPa East 7.4 km/h 7.4 km/h 29 % 0.0 mm 863.0 W/m2 CLR
15:11 36.8 °C 15.3 °C 1013.8 hPa Calm     28 % 0.0 mm 858.0 W/m2 CLR
15:16 36.8 °C 15.3 °C 1013.4 hPa ESE 9.3 km/h 9.3 km/h 28 % 0.0 mm 854.0 W/m2 CLR
15:21 36.7 °C 14.7 °C 1013.4 hPa ENE 14.8 km/h 14.8 km/h 27 % 0.0 mm 849.0 W/m2 CLR
15:26 36.7 °C 14.7 °C 1013.4 hPa ESE 11.1 km/h 11.1 km/h 27 % 0.0 mm 844.0 W/m2 CLR
15:31 37.2 °C 13.8 °C 1013.4 hPa East 13.0 km/h 13.0 km/h 25 % 0.0 mm 835.0 W/m2 CLR
15:36 37.3 °C 14.6 °C 1013.1 hPa ESE 14.8 km/h 14.8 km/h 26 % 0.0 mm 824.0 W/m2 CLR
15:41 37.2 °C 14.5 °C 1013.1 hPa East 14.8 km/h 14.8 km/h 26 % 0.0 mm 821.0 W/m2 CLR
15:46 37.3 °C 14.6 °C 1013.1 hPa SE 13.0 km/h 13.0 km/h 26 % 0.0 mm 816.0 W/m2 CLR
15:51 37.3 °C 14.6 °C 1013.1 hPa East 7.4 km/h   26 % 0.0 mm 802.0 W/m2 CLR
15:56 37.4 °C 14.7 °C 1013.1 hPa East 14.8 km/h 14.8 km/h 26 % 0.0 mm 793.0 W/m2 CLR
16:01 37.4 °C 14.7 °C 1013.1 hPa NNE 7.4 km/h 7.4 km/h 26 % 0.0 mm 789.0 W/m2 CLR
16:06 37.7 °C 14.9 °C 1012.8 hPa NE 5.6 km/h 5.6 km/h 26 % 0.0 mm 780.0 W/m2 CLR
16:11 38.0 °C 13.9 °C 1012.8 hPa SSE 11.1 km/h 11.1 km/h 24 % 0.0 mm 761.0 W/m2 CLR
16:16 38.0 °C 13.9 °C 1012.8 hPa ESE 7.4 km/h 7.4 km/h 24 % 0.0 mm 747.0 W/m2 CLR
16:21 38.2 °C 14.1 °C 1012.8 hPa ENE 16.7 km/h 16.7 km/h 24 % 0.0 mm 744.0 W/m2 CLR
16:26 38.3 °C 14.2 °C 1012.8 hPa ENE 5.6 km/h 5.6 km/h 24 % 0.0 mm 747.0 W/m2 CLR
16:31 38.1 °C 13.4 °C 1012.8 hPa ESE 7.4 km/h 7.4 km/h 23 % 0.0 mm 728.0 W/m2 CLR
16:36 37.8 °C 13.1 °C 1012.8 hPa SE 12.9 km/h 12.9 km/h 23 % 0.0 mm 721.0 W/m2 CLR
16:41 37.7 °C 13.0 °C 1012.4 hPa ENE 11.3 km/h 11.3 km/h 23 % 0.0 mm 712.0 W/m2 CLR
16:46 37.6 °C 12.9 °C 1012.4 hPa ENE 5.6 km/h 5.6 km/h 23 % 0.0 mm 696.0 W/m2 CLR
16:51 37.8 °C 12.4 °C 1012.4 hPa ENE 5.6 km/h 5.6 km/h 22 % 0.0 mm 670.0 W/m2 CLR
16:56 38.0 °C 12.6 °C 1012.4 hPa NE 11.1 km/h 11.1 km/h 22 % 0.0 mm 668.0 W/m2 CLR
17:01 37.9 °C 13.2 °C 1012.4 hPa ENE 11.1 km/h 11.1 km/h 23 % 0.0 mm 652.0 W/m2 CLR
17:06 37.9 °C 13.2 °C 1012.4 hPa ENE 11.1 km/h 11.1 km/h 23 % 0.0 mm 649.0 W/m2 CLR
17:11 38.2 °C 13.4 °C 1012.4 hPa Calm     23 % 0.0 mm 633.0 W/m2 CLR
17:16 38.2 °C 12.8 °C 1012.4 hPa ENE 9.3 km/h 9.3 km/h 22 % 0.0 mm 624.0 W/m2 CLR
17:21 38.1 °C 12.7 °C 1012.1 hPa ENE 9.3 km/h 9.3 km/h 22 % 0.0 mm 608.0 W/m2 CLR
17:26 38.0 °C 13.3 °C 1012.1 hPa East 5.6 km/h 5.6 km/h 23 % 0.0 mm 596.0 W/m2 CLR
17:31 38.1 °C 13.4 °C 1012.1 hPa NE 7.4 km/h 7.4 km/h 23 % 0.0 mm 584.0 W/m2 CLR
17:36 38.3 °C 12.9 °C 1012.1 hPa East 6.4 km/h 6.4 km/h 22 % 0.0 mm 568.0 W/m2 CLR
17:41 38.2 °C 12.8 °C 1012.1 hPa ENE 14.8 km/h 14.8 km/h 22 % 0.0 mm 550.0 W/m2 CLR
17:46 38.1 °C 13.3 °C 1012.1 hPa NE 8.0 km/h 8.0 km/h 23 % 0.0 mm 536.0 W/m2 CLR
17:51 38.2 °C 12.8 °C 1012.1 hPa North 1.9 km/h   22 % 0.0 mm 522.0 W/m2 CLR
17:57 38.4 °C 12.9 °C 1012.1 hPa East 4.8 km/h 4.8 km/h 22 % 0.0 mm 508.0 W/m2 CLR
18:02 38.6 °C 13.1 °C 1012.1 hPa West 5.6 km/h 5.6 km/h 22 % 0.0 mm 490.0 W/m2 CLR
18:07 38.8 °C 12.6 °C 1012.1 hPa NE 11.1 km/h 11.1 km/h 21 % 0.0 mm 478.0 W/m2 CLR
18:12 38.9 °C 12.6 °C 1012.1 hPa North 5.6 km/h 5.6 km/h 21 % 0.0 mm 469.0 W/m2 CLR
18:17 38.8 °C 12.5 °C 1012.1 hPa WNW 8.0 km/h 8.0 km/h 21 % 0.0 mm 455.0 W/m2 CLR
18:22 38.7 °C 12.5 °C 1012.1 hPa North 8.0 km/h 8.0 km/h 21 % 0.0 mm 436.0 W/m2 CLR
18:27 38.7 °C 11.7 °C 1011.7 hPa NE 12.9 km/h 12.9 km/h 20 % 0.0 mm 422.0 W/m2 CLR
18:32 38.6 °C 11.7 °C 1011.7 hPa North 13.0 km/h 13.0 km/h 20 % 0.0 mm 408.0 W/m2 CLR
18:37 38.6 °C 12.3 °C 1011.7 hPa ENE 9.3 km/h 9.3 km/h 21 % 0.0 mm 392.0 W/m2 CLR
18:42 38.4 °C 11.5 °C 1011.7 hPa ENE 9.3 km/h 9.3 km/h 20 % 0.0 mm 371.0 W/m2 CLR
18:47 38.4 °C 12.2 °C 1011.7 hPa NNE 9.3 km/h 9.3 km/h 21 % 0.0 mm 353.0 W/m2 CLR
18:52 38.3 °C 11.4 °C 1011.7 hPa ENE 7.4 km/h 7.4 km/h 20 % 0.0 mm 343.0 W/m2 CLR
18:57 38.4 °C 11.5 °C 1011.7 hPa North 8.0 km/h 8.0 km/h 20 % 0.0 mm 329.0 W/m2 CLR
19:02 38.3 °C 15.4 °C 1011.7 hPa ENE 18.5 km/h 18.5 km/h 26 % 0.0 mm 311.0 W/m2 CLR
19:07 37.4 °C 15.3 °C 1011.7 hPa East 11.1 km/h 11.1 km/h 27 % 0.0 mm 292.0 W/m2 CLR
19:12 36.8 °C 15.3 °C 1011.7 hPa ESE 11.3 km/h 11.3 km/h 28 % 0.0 mm 279.0 W/m2 CLR
19:17 36.4 °C 15.6 °C 1011.7 hPa SE 13.0 km/h 13.0 km/h 29 % 0.0 mm 265.0 W/m2 CLR
19:22 36.2 °C 15.9 °C 1011.7 hPa East 16.7 km/h 16.7 km/h 30 % 0.0 mm 250.0 W/m2 CLR
19:27 36.1 °C 15.8 °C 1011.7 hPa ESE 13.0 km/h 13.0 km/h 30 % 0.0 mm 232.0 W/m2 CLR
19:32 36.1 °C 15.7 °C 1011.7 hPa ESE 14.8 km/h 14.8 km/h 30 % 0.0 mm 218.0 W/m2 CLR
19:37 36.0 °C 15.7 °C 1011.7 hPa ESE 9.3 km/h 9.3 km/h 30 % 0.0 mm 200.0 W/m2 CLR
19:42 35.9 °C 15.7 °C 1011.7 hPa ESE 11.1 km/h 11.1 km/h 30 % 0.0 mm 183.0 W/m2 CLR
19:47 35.9 °C 15.7 °C 1011.7 hPa SE 13.0 km/h 13.0 km/h 30 % 0.0 mm 163.0 W/m2 CLR
19:52 35.8 °C 15.6 °C 1011.7 hPa ESE 13.0 km/h 13.0 km/h 30 % 0.0 mm 148.0 W/m2 CLR
19:57 35.8 °C 16.0 °C 1011.7 hPa SE 7.4 km/h 7.4 km/h 31 % 0.0 mm 134.0 W/m2 CLR
20:02 35.7 °C 15.9 °C 1011.7 hPa SE 5.6 km/h 5.6 km/h 31 % 0.0 mm 118.0 W/m2 CLR
20:07 35.6 °C 15.8 °C 1011.7 hPa SE 18.5 km/h 18.5 km/h 31 % 0.0 mm 104.0 W/m2 CLR
20:12 35.5 °C 15.8 °C 1011.7 hPa SSE 13.0 km/h 13.0 km/h 31 % 0.0 mm 90.0 W/m2 CLR
20:17 35.4 °C 15.7 °C 1011.7 hPa SSE 6.4 km/h 6.4 km/h 31 % 0.0 mm 77.0 W/m2 FEW
20:22 35.3 °C 15.6 °C 1011.7 hPa SE 13.0 km/h 13.0 km/h 31 % 0.0 mm 63.0 W/m2 SCT
20:27 35.2 °C 16.0 °C 1011.7 hPa SE 11.1 km/h 11.1 km/h 32 % 0.0 mm 51.0 W/m2 SCT
20:32 35.1 °C 15.9 °C 1011.7 hPa SE 11.1 km/h 11.1 km/h 32 % 0.0 mm 40.0 W/m2 BKN
20:37 35.0 °C 15.8 °C 1011.7 hPa SE 7.4 km/h 7.4 km/h 32 % 0.0 mm 35.0 W/m2 BKN
20:42 34.8 °C 15.7 °C 1011.7 hPa SSE 5.6 km/h 5.6 km/h 32 % 0.0 mm 28.0 W/m2 BKN
20:47 34.7 °C 15.6 °C 1012.1 hPa SE 5.6 km/h 5.6 km/h 32 % 0.0 mm 23.0 W/m2 BKN
20:52 34.6 °C 15.5 °C 1012.1 hPa Calm     32 % 0.0 mm 19.0 W/m2 BKN
20:57 34.4 °C 15.8 °C 1011.7 hPa SSE 1.9 km/h   33 % 0.0 mm 14.0 W/m2 BKN
21:02 34.2 °C 15.7 °C 1012.1 hPa Calm     33 % 0.0 mm 11.0 W/m2 BKN
21:07 34.0 °C 15.9 °C 1012.1 hPa Calm     34 % 0.0 mm 7.0 W/m2 BKN
21:12 33.8 °C 15.8 °C 1012.1 hPa Calm     34 % 0.0 mm 5.0 W/m2 OVC
21:17 33.6 °C 16.4 °C 1012.1 hPa Calm     36 % 0.0 mm 0.0 W/m2 OVC
21:22 33.3 °C 17.1 °C 1012.1 hPa Calm     38 % 0.0 mm 0.0 W/m2 OVC
21:27 33.0 °C 16.8 °C 1012.1 hPa ESE 7.4 km/h 7.4 km/h 38 % 0.0 mm 0.0 W/m2 CLR
21:32 32.9 °C 16.7 °C 1012.1 hPa Calm     38 % 0.0 mm 0.0 W/m2 CLR
21:37 32.7 °C 16.9 °C 1012.1 hPa Calm     39 % 0.0 mm 0.0 W/m2 CLR
21:42 32.5 °C 16.3 °C 1012.4 hPa Calm     38 % 0.0 mm 0.0 W/m2 CLR
21:47 32.4 °C 16.7 °C 1012.4 hPa Calm     39 % 0.0 mm 0.0 W/m2 CLR
21:52 32.2 °C 16.5 °C 1012.4 hPa Calm     39 % 0.0 mm 0.0 W/m2 CLR
21:57 32.0 °C 16.7 °C 1012.4 hPa Calm     40 % 0.0 mm 0.0 W/m2 CLR
22:02 31.7 °C 16.8 °C 1012.4 hPa Calm     41 % 0.0 mm 0.0 W/m2 CLR
22:07 31.4 °C 17.0 °C 1012.4 hPa Calm     42 % 0.0 mm 0.0 W/m2 CLR
22:12 31.2 °C 16.8 °C 1012.8 hPa Calm     42 % 0.0 mm 0.0 W/m2 CLR
22:17 31.0 °C 16.6 °C 1012.8 hPa Calm     42 % 0.0 mm 0.0 W/m2 CLR
22:22 30.8 °C 16.8 °C 1012.8 hPa Calm     43 % 0.0 mm 0.0 W/m2 CLR
22:27 30.8 °C 16.8 °C 1012.8 hPa Calm     43 % 0.0 mm 0.0 W/m2 CLR
22:32 30.8 °C 16.8 °C 1012.8 hPa Calm     43 % 0.0 mm 0.0 W/m2 CLR
22:37 30.7 °C 16.7 °C 1012.8 hPa Calm     43 % 0.0 mm 0.0 W/m2 CLR
22:42 30.6 °C 16.6 °C 1012.8 hPa Calm     43 % 0.0 mm 0.0 W/m2 CLR
22:47 30.3 °C 16.3 °C 1012.8 hPa Calm     43 % 0.0 mm 0.0 W/m2 CLR
22:52 30.2 °C 16.2 °C 1012.8 hPa Calm     43 % 0.0 mm 0.0 W/m2 CLR
22:57 30.2 °C 16.2 °C 1012.8 hPa Calm     43 % 0.0 mm 0.0 W/m2 CLR
23:02 30.2 °C 15.8 °C 1012.8 hPa Calm     42 % 0.0 mm 0.0 W/m2 CLR
23:07 30.2 °C 15.8 °C 1012.8 hPa Calm     42 % 0.0 mm 0.0 W/m2 CLR
23:12 30.1 °C 16.2 °C 1012.8 hPa Calm     43 % 0.0 mm 0.0 W/m2 CLR
23:17 29.9 °C 15.9 °C 1012.8 hPa Calm     43 % 0.0 mm 0.0 W/m2 CLR
23:22 29.7 °C 15.8 °C 1012.8 hPa Calm     43 % 0.0 mm 0.0 W/m2 CLR
23:28 29.5 °C 15.6 °C 1012.8 hPa Calm     43 % 0.0 mm 0.0 W/m2 CLR
23:33 29.4 °C 15.5 °C 1013.1 hPa Calm     43 % 0.0 mm 0.0 W/m2 CLR
23:38 29.2 °C 15.7 °C 1013.1 hPa Calm     44 % 0.0 mm 0.0 W/m2 CLR
23:43 29.1 °C 15.6 °C 1013.1 hPa Calm     44 % 0.0 mm 0.0 W/m2 CLR
23:48 28.9 °C 15.8 °C 1013.1 hPa Calm     45 % 0.0 mm 0.0 W/m2 CLR
23:53 28.8 °C 15.7 °C 1013.1 hPa Calm     45 % 0.0 mm 0.0 W/m2 CLR
23:58 28.6 °C 15.5 °C 1013.1 hPa Calm     45 % 0.0 mm 0.0 W/m2 CLR
Lo Temps de Massalio
Compliments of Weather Underground - 1.25 mb